Wind_Speed
36 37 36 36 35 33 32 32 31 30 30 29 30 30 31 32 33 35 36 36 37 37 37 36 36 36 36 37 37 38 39 40 41 42 42 43 44 45 45 45 45 45 45 45 45 45 46 46 46 46 46 46 46 47 47 47 48 48 48 49 49 49 49 50 50 50 51 51 51 52 52 52 52 53 53 53 53 53 53 53 53 52 52 51 50 49
37 36 36 35 34 33 32 31 30 30 29 29 30 30 31 32 33 34 35 36 36 36 36 36 36 36 36 37 38 39 40 41 42 43 44 44 45 45 46 46 45 45 45 45 45 46 46 46 46 46 46 46 46 46 47 47 47 48 48 48 49 49 49 50 50 50 51 51 51 52 52 52 52 52 52 52 52 52 52 51 51 50 50 49 48 47
36 35 35 34 33 32 30 30 29 29 29 29 30 31 31 32 33 34 35 35 35 35 35 36 36 36 37 38 39 40 41 42 43 44 45 45 46 46 46 46 46 46 46 46 46 46 46 46 46 46 46 46 46 46 46 47 47 47 48 48 49 49 49 50 50 50 50 51 51 51 51 52 52 52 51 51 51 50 50 49 49 48 47 46 45 44
32 32 32 32 31 30 29 29 28 29 29 30 31 31 32 32 33 34 34 34 35 35 36 36 37 37 38 39 40 41 42 43 44 45 45 46 46 46 46 46 46 46 46 46 46 46 45 45 45 45 45 45 45 46 46 47 47 48 48 48 49 49 49 50 50 50 50 51 51 51 51 51 50 50 50 49 49 48 47 47 46 45 44 43 42 41
32 32 32 31 31 30 29 29 29 30 30 31 32 32 32 32 33 33 34 34 35 35 36 37 37 38 39 40 41 42 43 44 44 45 45 45 46 46 46 45 45 45 45 45 45 44 44 44 44 44 45 45 46 46 46 47 47 48 48 49 49 49 49 49 50 50 50 50 50 49 49 49 48 48 47 47 46 45 44 43 43 42 41 40 39 39
37 37 36 35 33 31 30 30 31 31 32 33 33 32 32 32 33 33 34 35 35 36 37 38 38 39 40 41 42 43 43 44 45 45 45 45 45 44 44 44 44 44 44 44 44 44 44 44 44 45 45 46 46 46 47 47 48 48 48 48 49 49 49 49 49 48 48 48 48 47 47 46 45 45 44 43 43 42 41 40 39 39 38 38 37 37
41 41 40 37 35 33 32 32 33 33 33 33 33 32 32 33 33 34 35 35 36 37 38 39 39 40 41 41 42 43 43 44 44 44 44 43 43 43 43 43 43 43 43 44 44 44 45 45 45 45 46 46 46 46 47 47 47 47 48 48 48 48 47 47 47 46 46 46 45 44 44 43 42 42 41 40 39 39 38 38 37 37 36 36 36 36
40 40 40 37 35 33 32 33 33 34 33 32 32 33 33 34 34 35 36 36 37 38 39 40 40 40 41 41 41 42 42 42 42 42 42 41 41 42 42 42 43 43 44 44 44 45 45 45 45 45 46 46 46 46 46 46 46 46 46 46 46 46 45 45 44 44 43 43 42 41 40 40 39 38 38 37 37 36 36 36 36 35 36 36 36 36
36 36 36 35 32 31 31 32 33 33 32 32 33 33 34 35 36 36 37 38 39 39 40 40 40 39 39 40 40 40 41 41 41 41 41 41 41 41 42 42 43 44 44 44 44 45 45 45 45 45 45 45 45 45 45 45 44 44 44 44 43 43 43 42 42 41 40 40 39 38 37 37 36 36 35 35 35 35 35 35 35 35 35 35 36 36
34 33 32 31 31 30 29 30 31 32 32 33 34 34 35 36 37 38 39 40 40 40 40 39 38 38 37 38 38 39 40 40 41 41 41 41 41 41 42 42 43 43 43 44 44 44 44 44 44 44 43 43 43 42 42 42 42 41 41 41 40 40 40 39 39 38 37 36 36 35 35 34 34 34 34 34 34 34 34 34 35 35 35 35 35 35
32 31 29 29 29 29 29 30 31 33 33 34 35 36 37 38 38 38 38 39 39 39 38 38 37 36 36 37 38 39 40 41 41 41 41 41 41 41 42 42 42 42 42 42 42 42 42 42 42 41 40 40 39 39 39 38 38 38 38 37 37 36 36 35 35 34 34 34 33 33 33 33 33 33 33 34 34 34 34 34 34 34 34 34 34 33
29 29 28 28 29 30 31 32 33 34 35 36 37 38 38 38 38 37 37 36 36 36 36 37 37 37 37 38 39 40 41 41 41 41 41 41 41 41 41 41 41 41 40 40 40 39 39 39 38 37 36 36 35 35 35 34 34 34 34 33 33 33 33 32 32 32 32 32 32 32 33 33 33 33 34 34 34 34 34 34 33 33 32 32 32 31
28 28 28 29 30 31 32 34 35 36 37 37 37 37 37 37 37 36 36 35 35 35 36 36 37 37 38 39 40 40 41 41 41 41 40 40 40 40 40 40 39 38 37 36 36 35 35 34 33 32 32 31 31 31 31 31 31 31 31 31 31 31 31 31 31 31 32 32 33 33 33 33 34 34 34 34 33 33 33 32 32 31 31 30 30 30
28 29 30 31 32 33 34 35 36 36 37 37 36 36 36 36 36 36 36 36 36 37 37 36 37 37 38 39 40 41 41 41 40 39 38 38 37 37 37 36 35 34 32 31 31 30 29 29 28 28 27 27 27 28 28 28 28 29 29 30 30 31 31 31 32 32 33 33 33 33 33 34 33 33 33 33 32 32 31 31 30 30 29 29 29 29
30 31 32 33 33 34 35 35 35 35 36 36 35 35 35 36 36 37 37 37 37 38 37 37 37 37 37 38 39 40 40 39 38 36 35 34 34 34 33 31 30 28 26 25 25 25 24 24 23 24 24 24 25 26 27 27 28 29 30 30 31 31 32 32 33 33 33 33 33 33 33 33 33 32 32 32 31 31 30 30 29 29 29 29 28 28
31 32 33 33 34 34 35 35 34 34 35 35 35 35 36 36 37 38 38 38 38 38 37 36 36 35 35 36 37 37 37 36 34 32 30 29 29 29 27 26 24 22 21 20 20 20 20 20 21 21 22 23 24 25 27 28 29 30 30 31 31 32 32 33 33 33 33 33 33 33 32 32 32 31 31 31 30 30 30 29 29 29 28 28 28 28
32 33 33 33 33 33 34 34 34 34 35 35 36 36 37 37 37 38 37 37 37 36 36 35 33 32 32 33 34 34 33 32 29 27 25 24 24 23 21 20 18 17 16 17 17 18 18 19 20 21 22 23 24 26 27 28 29 30 30 31 31 32 32 32 32 32 32 32 32 32 31 31 31 31 30 30 30 29 29 29 28 28 28 28 28 28
32 32 32 32 33 33 34 35 35 36 36 36 36 37 37 37 37 37 36 35 34 33 33 32 31 29 28 28 29 30 29 27 25 22 20 18 18 18 17 16 15 15 15 16 17 17 18 19 20 21 22 23 24 26 27 28 29 29 30 30 30 31 31 31 31 31 31 31 31 31 31 30 30 30 30 30 29 29 29 28 28 28 28 28 28 28
32 33 33 33 33 34 35 35 36 36 36 36 36 36 36 36 35 34 33 32 31 30 29 28 27 26 24 24 24 25 23 22 20 17 15 14 15 15 15 15 14 15 15 16 17 18 18 19 19 20 21 23 24 25 26 27 27 28 29 29 30 30 30 30 31 31 31 31 31 30 30 30 30 30 30 29 29 29 28 28 28 28 28 27 27 27
33 34 34 34 34 35 35 36 36 36 35 35 35 34 33 33 32 31 29 28 27 26 25 24 22 21 20 20 20 20 19 18 16 14 12 12 13 14 14 14 15 15 15 16 16 17 17 18 18 19 20 21 23 24 24 25 26 27 27 28 29 29 30 30 30 30 30 30 30 30 30 30 30 30 30 29 29 29 28 28 28 28 28 27 27 27
34 34 35 35 35 35 35 36 36 35 34 33 32 31 30 28 27 26 25 24 23 22 20 19 18 17 17 17 17 17 16 15 14 12 11 11 12 14 14 14 14 14 14 15 15 16 16 16 17 18 19 20 21 22 23 24 25 26 27 27 28 29 29 30 30 30 31 31 31 31 31 30 30 30 30 30 29 29 29 28 28 28 28 28 27 27
34 35 36 36 36 35 34 34 34 33 31 30 28 26 25 24 22 21 20 20 19 18 17 16 15 15 15 15 15 15 14 14 13 12 11 11 12 13 14 15 14 14 13 14 14 14 15 15 16 17 18 20 21 21 22 23 24 25 26 27 27 28 29 29 30 30 31 31 31 31 31 31 31 31 31 30 30 30 29 29 29 29 28 28 28 27
35 35 35 35 34 33 32 31 30 28 27 25 23 22 20 19 18 17 17 16 15 14 14 13 13 13 13 14 14 14 14 14 14 13 12 12 12 13 14 14 14 13 13 13 13 14 14 15 16 17 18 19 20 21 22 23 23 24 25 26 27 27 28 29 30 30 31 31 31 32 32 32 32 31 31 31 31 30 30 30 29 29 29 29 28 28
35 34 33 32 31 29 28 26 25 24 22 21 19 18 16 15 15 14 14 13 13 12 12 12 12 12 13 13 14 14 15 15 15 14 14 13 12 13 14 14 14 13 13 13 13 14 14 15 16 17 18 19 20 20 21 22 23 24 24 25 26 27 28 28 29 30 30 31 31 31 31 32 32 32 32 31 31 31 31 30 30 30 30 29 29 29
32 31 29 28 26 24 23 22 20 19 18 17 16 14 13 13 12 12 11 11 11 11 10 11 11 12 12 13 14 15 16 16 16 15 15 13 13 13 14 15 15 14 14 14 14 14 15 15 15 16 17 18 19 20 20 21 22 23 24 25 25 26 27 28 28 29 29 30 30 30 31 31 31 31 31 31 31 31 31 31 31 31 31 30 30 29
28 26 24 22 21 19 18 17 16 15 14 13 12 11 11 11 11 10 10 10 10 10 10 10 11 11 12 13 14 15 16 17 17 16 16 15 14 14 16 17 17 17 16 15 15 15 15 15 15 15 16 17 18 19 19 20 21 22 23 24 24 25 26 27 27 28 28 29 29 30 30 30 31 31 31 31 31 31 31 31 31 31 31 31 31 30
23 21 19 18 16 15 14 14 13 12 11 10 9 9 9 9 9 10 10 10 10 10 11 11 11 11 12 13 14 15 17 18 18 18 18 17 16 16 17 18 19 19 18 16 15 15 15 14 15 15 15 16 17 17 18 19 20 21 22 23 23 24 25 26 26 27 27 28 28 29 29 30 30 30 31 31 31 31 32 32 32 32 32 32 32 31
19 17 15 14 13 12 11 10 10 9 8 8 7 7 8 8 9 9 9 10 11 11 11 11 12 12 12 13 14 16 18 19 19 20 19 19 19 18 19 20 20 20 20 18 17 15 14 14 14 15 15 15 16 16 17 18 19 20 21 21 22 23 24 25 26 26 27 28 28 29 29 29 30 30 31 31 31 31 32 32 32 32 33 33 32 32
15 14 12 11 10 9 8 8 7 7 7 7 7 7 8 8 9 9 10 11 11 12 12 12 12 13 13 13 14 16 18 20 21 21 21 21 20 20 20 21 21 22 21 20 18 15 14 14 14 15 15 15 15 16 17 18 18 19 20 20 21 22 23 25 25 26 27 27 28 28 29 29 29 30 30 31 31 31 31 32 32 32 33 33 32 32
13 11 10 8 7 7 6 6 6 6 7 7 7 8 8 9 9 10 11 11 11 12 12 12 13 13 14 14 15 16 18 21 22 22 22 22 21 21 21 21 22 22 23 22 20 17 14 13 13 14 15 15 15 15 16 17 18 18 19 20 21 22 23 24 25 26 26 27 27 28 28 29 29 29 30 30 30 31 31 31 31 32 32 32 32 32
10 9 8 7 6 5 5 6 6 6 7 7 8 8 9 9 10 10 11 11 11 12 12 13 13 14 14 15 15 16 18 21 23 23 23 22 22 21 21 22 22 23 23 24 23 20 17 14 13 13 14 14 14 15 16 17 18 18 19 19 20 21 23 24 25 25 26 26 27 27 27 28 28 29 29 29 30 30 30 30 31 31 31 31 31 31
8 7 6 6 5 5 5 6 6 6 7 8 8 8 9 9 10 10 11 11 12 12 12 13 13 14 15 15 16 16 18 20 22 23 23 23 23 22 22 22 22 22 23 24 24 23 21 17 15 14 14 14 14 15 15 16 17 18 19 20 21 22 23 24 25 25 26 26 26 26 27 27 28 28 28 28 29 29 29 29 29 30 30 31 31 31
6 6 5 5 5 5 5 6 6 7 7 8 8 9 9 9 10 10 11 11 12 12 13 13 14 14 15 16 16 17 18 20 22 23 23 23 23 22 22 22 22 22 23 23 23 23 23 21 19 16 15 14 15 15 16 17 18 19 20 21 22 22 23 24 25 25 26 26 26 26 26 26 27 27 27 27 28 28 28 28 28 29 29 30 31 31
5 5 5 5 5 6 6 6 7 7 8 8 9 9 10 10 10 11 11 12 12 13 13 14 14 15 15 16 16 17 18 20 21 23 23 23 23 22 22 22 22 23 23 23 23 23 23 22 21 20 18 16 16 16 17 18 19 20 21 22 23 23 24 25 26 26 26 26 26 26 26 26 26 26 26 27 27 27 27 27 27 28 28 29 30 31
5 5 5 6 6 6 7 7 8 8 8 9 9 9 10 10 11 11 12 12 13 13 14 14 15 15 15 16 16 17 18 19 21 22 23 23 23 23 23 22 23 23 23 23 23 23 23 23 23 22 21 19 18 17 18 19 20 21 22 23 24 25 25 26 26 26 26 26 26 26 26 26 26 26 26 26 26 26 26 26 26 27 28 29 30 30
5 6 6 6 7 7 7 8 8 8 9 9 9 10 10 10 11 11 12 12 13 13 14 14 15 16 16 16 17 17 18 19 21 22 23 23 24 23 23 23 23 24 24 24 24 24 24 24 24 24 23 23 21 20 20 20 21 22 23 23 24 25 26 27 27 27 27 26 26 26 26 26 26 26 25 25 25 25 25 25 25 26 27 28 29 29
6 6 7 7 7 8 8 8 8 9 9 9 9 10 10 11 11 11 12 13 13 14 14 14 15 16 16 17 18 18 19 20 21 22 23 24 24 24 24 24 24 25 25 25 26 26 26 26 25 25 25 25 24 23 22 22 22 23 24 24 25 25 26 27 27 27 27 27 27 26 26 26 26 26 25 25 25 24 24 24 25 25 26 27 28 28
7 7 7 8 8 8 8 8 9 9 9 9 10 10 10 11 11 12 12 13 13 14 14 14 15 16 17 17 18 19 20 21 22 22 23 24 25 25 25 25 25 26 26 27 27 27 28 28 28 27 27 27 26 26 25 25 25 25 25 25 25 25 26 26 27 27 28 28 27 27 27 27 27 26 26 25 24 24 24 24 24 25 25 26 27 27
8 8 8 8 8 8 9 9 9 9 9 10 10 10 10 11 11 12 12 13 13 14 14 15 15 16 17 18 19 20 21 22 22 23 24 25 26 26 26 26 26 27 27 28 28 29 29 29 30 30 29 29 28 27 27 27 27 27 27 26 25 25 25 26 27 28 28 28 28 28 28 28 28 27 26 25 25 24 24 24 24 24 25 25 26 26
8 9 9 9 9 9 9 9 9 9 10 10 10 11 11 11 12 12 13 14 14 14 15 15 16 16 17 18 20 21 22 22 23 24 25 26 27 27 27 28 28 28 28 29 29 30 30 31 31 31 31 31 31 30 29 28 29 29 30 29 28 26 25 26 27 27 28 28 29 29 29 28 28 27 27 26 25 24 24 24 24 24 25 25 25 25
9 9 9 9 9 9 9 10 10 10 10 11 11 11 12 12 13 13 14 14 15 15 16 16 17 17 18 19 21 22 23 23 24 25 26 27 27 28 29 29 29 29 29 30 30 30 31 32 32 32 32 33 33 32 31 30 30 31 31 31 30 29 27 26 26 27 28 28 28 29 29 29 29 28 27 26 25 25 24 24 24 24 25 25 26 25
10 10 10 10 10 10 10 10 10 11 11 12 12 12 13 13 13 14 14 15 16 16 17 17 18 18 19 20 21 22 23 24 25 26 27 28 28 29 29 30 30 30 31 31 31 31 32 32 33 33 33 34 34 33 32 31 31 31 32 33 32 31 29 27 27 27 28 28 28 29 29 29 29 28 27 26 25 25 24 24 24 24 24 24 25 25
10 10 10 10 10 10 11 11 11 12 12 13 13 13 14 14 14 15 15 16 17 17 18 19 19 19 20 21 21 23 24 25 26 27 28 28 29 30 30 30 31 31 31 32 32 32 32 33 33 34 34 35 35 34 34 33 32 32 33 33 34 33 32 29 28 27 28 28 28 28 29 29 29 28 27 26 25 24 24 23 23 23 23 23 23 24
11 11 11 11 11 11 12 12 12 13 13 14 14 14 15 15 16 16 17 17 18 19 19 20 20 21 21 22 22 23 24 25 26 27 28 29 30 30 31 31 32 32 32 33 33 33 33 34 34 34 35 35 35 35 35 34 34 34 34 34 34 34 33 32 30 29 29 28 28 28 28 29 29 28 27 26 25 24 23 22 22 21 21 21 21 22
11 12 12 12 12 12 12 13 13 14 14 15 15 16 16 17 17 18 18 19 20 20 21 21 22 22 23 23 24 24 25 25 26 27 28 29 30 30 31 31 32 32 33 33 34 34 34 34 34 35 35 35 36 36 35 35 35 35 34 34 34 34 33 32 31 31 30 29 29 28 29 29 29 28 27 26 25 24 23 22 21 20 20 19 20 20
12 12 12 12 13 13 13 14 14 15 15 16 16 17 17 18 19 19 20 20 21 22 22 23 23 24 24 24 25 25 25 26 26 27 27 28 29 30 30 31 32 32 33 33 34 34 34 35 35 35 36 36 36 36 35 36 36 36 35 34 34 34 33 32 31 31 31 31 30 30 30 29 29 29 28 27 25 24 22 21 21 20 19 19 19 19
13 13 13 13 13 14 14 15 15 15 16 16 17 18 19 19 20 21 21 22 22 23 23 24 24 25 25 26 26 26 26 26 26 27 27 28 28 29 30 30 31 32 32 33 33 34 34 35 35 36 36 36 36 35 35 35 36 36 35 35 34 34 33 32 31 31 31 31 31 31 31 31 31 30 30 28 27 25 23 22 21 21 20 20 19 19
13 13 14 14 14 15 15 16 16 16 17 17 18 19 20 21 22 22 23 23 24 24 24 25 25 26 26 27 27 27 27 27 27 27 27 28 28 29 29 30 31 31 32 32 33 34 34 35 35 35 36 36 36 36 35 35 35 35 35 35 34 34 33 32 31 30 31 31 31 31 32 32 32 32 32 31 29 27 25 24 23 22 21 21 21 20
14 14 14 15 15 16 16 16 17 17 18 18 19 20 21 22 23 24 24 24 25 25 25 26 26 26 27 27 27 28 28 28 28 28 28 28 29 29 29 30 31 31 32 32 33 33 34 34 34 34 34 35 35 35 35 34 34 34 34 33 33 33 32 32 31 31 31 32 32 32 32 33 34 34 34 33 32 30 28 26 24 23 22 22 22 21
15 15 15 16 16 16 17 17 18 18 19 19 20 21 22 23 24 25 25 25 25 26 26 26 27 27 27 28 28 28 28 29 28 29 29 29 29 30 30 31 31 32 32 33 33 33 34 34 33 33 33 33 34 34 35 34 34 33 32 32 32 32 32 32 31 31 32 32 33 33 33 34 34 35 35 35 34 32 30 28 26 24 23 23 23 22
16 16 16 17 17 17 18 18 19 19 20 21 21 22 23 24 24 25 25 26 26 26 27 27 28 28 28 28 29 29 29 29 29 29 29 30 30 30 31 31 32 32 33 33 33 34 34 34 33 32 31 31 32 33 34 34 33 32 32 31 31 31 31 32 32 32 33 33 34 34 34 35 35 36 36 36 36 34 32 30 28 26 24 24 23 23
Wind_Direction
284 284 284 284 283 282 282 282 283 283 283 283 282 281 281 281 281 282 282 282 282 282 282 282 282 282 283 284 284 285 285 285 285 285 285 284 284 284 284 284 284 285 285 285 286 286 286 286 285 285 284 283 283 282 282 282 281 281 281 280 280 280 280 280 280 280 280 280 280 280 280 280 280 280 281 281 281 281 282 282 282 282 282 282 282 282
282 282 283 283 283 283 283 284 285 285 285 285 284 284 283 283 282 282 282 282 282 281 281 282 283 284 285 285 286 286 286 286 286 285 285 285 284 285 285 285 285 286 286 287 287 286 286 285 285 284 284 283 283 282 282 281 281 281 281 281 280 280 280 280 280 280 280 280 280 280 280 280 281 281 281 281 281 282 282 282 283 283 283 282 282 282
279 281 282 283 284 284 285 286 287 287 287 286 285 284 283 282 282 282 281 281 281 282 283 284 285 286 287 287 287 287 287 286 286 285 285 285 285 286 286 287 287 287 288 287 287 286 286 285 284 284 283 283 283 282 282 282 281 281 281 281 280 280 280 280 280 280 280 280 280 281 281 281 281 281 282 282 282 283 283 283 283 283 283 282 282 281
282 285 286 285 285 285 286 287 287 288 287 286 284 283 281 281 281 281 282 282 283 285 286 287 288 289 289 288 288 287 287 286 286 286 286 286 287 287 288 288 288 288 288 287 287 286 285 284 284 284 283 283 283 282 282 282 282 281 281 281 281 281 281 281 281 281 281 281 281 281 281 282 282 283 283 283 283 283 283 283 283 283 282 282 281 280
290 292 291 290 288 287 287 288 288 289 288 286 284 283 282 282 282 283 284 285 287 288 289 289 289 289 288 288 287 287 287 287 287 287 287 288 288 289 289 289 289 288 287 287 286 285 285 284 284 284 283 283 283 282 282 282 282 282 282 281 282 281 281 281 282 282 282 282 282 282 283 283 283 284 284 284 284 284 283 283 282 281 281 280 279 278
290 290 290 290 289 288 287 288 288 288 287 285 284 283 283 283 284 285 286 288 288 289 289 288 288 288 288 288 287 287 288 288 288 288 289 289 289 289 289 288 288 287 287 286 285 285 285 284 284 283 283 283 283 283 283 283 282 282 282 282 282 282 282 282 283 283 283 283 284 284 284 284 284 284 284 284 283 282 282 281 280 279 278 277 276 276
285 285 286 286 287 287 287 287 287 286 284 283 283 283 283 284 286 287 287 288 288 288 288 288 288 288 289 289 289 289 289 289 289 289 289 289 289 288 288 287 287 286 286 285 285 285 284 284 284 284 284 284 284 283 283 283 283 283 283 283 283 283 283 283 284 284 284 284 285 285 285 284 284 283 283 282 281 280 279 278 277 276 275 274 274 274
283 283 283 283 284 285 285 285 284 283 282 282 283 284 285 286 287 287 287 287 287 287 288 288 289 290 290 291 291 290 290 290 289 289 288 288 288 287 287 286 286 285 285 285 285 285 285 285 285 285 285 285 285 285 284 284 284 284 284 284 284 284 284 284 285 285 285 285 285 285 284 283 282 281 280 279 278 277 276 275 275 274 274 274 274 274
284 283 282 281 281 282 282 283 282 282 282 284 285 286 287 287 287 288 288 288 289 289 290 290 291 291 291 291 291 290 289 288 288 287 287 287 286 286 286 285 285 285 285 285 286 286 286 286 286 286 286 286 286 286 286 285 285 285 285 285 285 285 286 286 286 286 285 285 284 284 283 282 280 279 278 278 277 276 276 276 276 276 276 276 276 276
285 282 281 280 280 281 282 283 284 284 285 286 287 287 288 288 288 289 290 290 291 292 292 292 292 292 291 290 289 288 288 287 287 286 286 286 285 285 285 285 285 286 286 286 287 287 287 287 287 287 288 287 287 287 287 287 287 287 287 287 287 287 287 287 287 286 286 285 284 283 282 281 281 280 280 279 279 279 279 279 280 280 280 280 280 280
282 281 281 281 282 284 285 285 286 287 287 288 288 288 289 289 291 292 292 293 293 294 293 293 292 291 290 289 288 287 287 287 286 286 286 286 286 286 286 286 286 286 287 287 288 288 288 289 289 289 289 289 289 289 290 290 290 290 290 289 289 289 288 288 287 287 286 285 285 284 284 284 283 283 283 283 283 283 283 284 284 284 283 283 283 282
281 281 282 284 286 287 287 287 287 288 288 288 289 291 292 293 294 294 294 294 294 293 293 292 292 291 290 288 287 287 286 286 286 286 286 286 286 286 286 287 287 287 288 289 289 289 289 290 290 291 291 292 292 292 292 292 292 292 291 291 291 290 289 289 288 288 287 287 287 287 287 287 287 287 287 287 287 287 287 287 287 287 286 285 285 283
283 284 285 286 287 288 288 288 288 289 290 291 293 294 295 295 295 295 294 294 293 292 292 291 291 290 289 288 287 286 286 286 286 286 287 287 287 287 287 288 288 289 290 290 291 291 291 292 292 293 294 294 294 294 294 294 293 293 292 292 291 291 290 290 290 290 290 290 290 290 290 290 289 290 290 290 290 290 290 289 289 288 288 287 286 284
286 287 287 288 289 289 290 291 292 293 294 295 296 297 297 296 296 295 295 294 293 293 292 291 290 290 289 288 287 287 287 287 287 288 288 289 289 289 289 290 290 291 292 292 292 292 293 294 295 295 296 296 296 295 295 294 294 293 293 292 292 292 292 292 292 292 292 292 292 292 292 291 292 291 291 292 291 291 291 291 290 290 289 288 287 286
288 289 290 291 292 293 294 295 296 297 298 298 298 298 297 297 296 295 295 294 294 293 292 291 291 290 290 289 288 288 289 289 290 291 292 292 292 292 292 293 294 294 295 294 294 294 295 296 297 297 297 297 296 296 295 294 294 293 293 293 293 293 293 293 293 293 293 293 293 293 293 293 293 293 293 293 293 293 292 292 292 291 290 289 288 287
292 293 294 295 296 297 297 298 298 298 299 299 299 298 298 297 296 296 295 294 294 293 292 292 292 291 291 291 290 291 291 293 294 295 296 296 295 295 296 297 297 298 298 298 297 298 299 299 299 299 298 297 296 295 294 294 294 294 293 293 294 294 293 293 293 293 293 293 293 293 293 294 294 294 294 294 294 294 293 293 292 292 291 290 289 289
296 297 297 298 298 298 299 299 300 300 300 299 299 298 297 296 296 295 295 295 294 294 294 293 293 293 293 293 293 294 295 297 298 300 301 299 298 299 301 301 302 303 303 302 302 302 302 301 301 300 298 297 295 294 294 293 293 293 293 293 294 293 293 293 294 294 294 294 294 294 295 295 295 295 295 295 295 294 294 293 293 292 291 291 290 289
298 298 299 299 299 299 300 300 300 300 300 299 298 297 296 296 296 295 295 295 295 296 296 297 297 297 297 296 295 296 298 300 302 304 305 304 303 304 307 308 309 309 309 307 306 305 304 302 301 299 297 296 294 293 293 293 293 293 294 294 294 294 294 294 294 295 295 295 296 296 296 296 296 296 296 296 295 295 294 294 293 292 291 291 290 289
299 299 299 300 300 300 300 300 300 299 298 297 297 296 296 296 296 296 297 297 298 299 300 300 301 301 301 299 298 299 301 303 306 309 312 311 309 310 313 313 312 312 311 308 306 305 303 302 300 298 296 294 293 293 293 293 294 294 294 295 295 295 295 296 296 296 297 297 297 297 297 297 297 297 297 296 296 295 295 294 293 292 291 291 290 289
299 299 300 300 300 300 300 299 298 298 297 296 296 296 296 296 297 298 299 300 301 302 303 304 304 304 303 301 301 303 306 308 311 316 319 317 314 313 313 312 312 312 310 307 305 304 303 301 299 297 296 295 294 294 294 295 295 296 296 297 297 297 298 298 298 299 299 299 299 299 299 299 298 298 297 297 297 296 295 295 294 293 292 291 290 289
300 300 300 300 300 300 299 298 298 297 297 296 297 297 297 298 300 301 302 303 304 305 306 307 307 307 307 306 306 308 311 312 315 318 321 318 315 312 311 310 310 309 308 306 305 304 304 302 301 299 297 297 297 297 298 298 298 299 299 299 300 300 300 301 301 301 301 301 301 300 300 300 299 299 299 298 298 297 296 296 295 294 293 292 291 290
300 300 300 300 300 299 299 298 297 297 297 297 298 299 300 301 303 304 305 306 307 309 310 311 311 311 311 310 310 311 312 312 314 316 318 317 313 309 309 309 308 308 308 307 306 307 306 306 304 302 301 301 301 301 302 302 302 302 302 302 303 303 303 303 303 303 302 302 302 302 301 301 301 300 300 299 299 298 297 296 295 294 293 293 292 291
300 300 300 299 299 298 297 297 297 297 297 299 300 302 304 306 307 308 309 310 311 313 315 315 314 313 312 311 309 309 309 309 310 312 314 315 311 307 307 308 309 310 310 310 310 311 311 310 309 307 306 305 305 306 306 306 305 305 305 305 304 304 304 304 303 303 303 302 302 302 302 301 301 300 300 299 299 298 297 296 295 295 294 293 292 291
299 298 298 297 297 297 296 296 297 298 299 301 304 307 309 310 311 312 313 314 315 316 316 315 313 311 309 308 307 306 306 307 309 310 312 313 311 308 307 308 309 311 313 314 314 315 315 314 312 310 309 308 308 308 308 307 307 306 306 305 305 305 304 304 303 303 302 302 301 301 301 301 300 300 299 299 298 297 297 296 295 295 294 293 293 292
296 296 295 295 295 295 295 296 297 299 302 305 309 312 313 314 314 314 314 314 313 313 312 310 308 306 306 306 306 305 305 307 308 310 312 313 312 310 309 310 311 313 315 316 317 318 317 316 313 311 309 309 308 308 308 307 307 306 306 305 305 304 303 303 302 301 300 300 300 299 299 299 298 298 298 297 297 296 296 296 295 295 294 294 293 293
295 294 294 294 294 294 295 297 298 301 305 308 311 313 314 313 312 312 311 311 310 310 310 308 306 305 306 307 306 304 305 306 308 310 312 313 314 313 312 312 312 314 316 317 318 318 317 315 312 309 308 307 307 307 307 306 305 305 304 304 303 302 302 301 300 299 299 298 298 298 297 297 297 296 296 296 296 295 295 295 295 295 294 294 293 293
294 294 294 293 294 294 295 297 299 302 305 308 309 309 309 308 308 308 308 309 310 310 310 310 309 308 308 308 307 306 306 306 308 310 312 314 315 316 315 314 313 314 315 316 317 317 316 313 310 307 306 305 305 305 304 303 303 302 302 302 301 301 300 300 299 299 299 298 298 297 297 296 296 295 295 295 295 294 294 294 294 294 294 293 293 293
295 294 294 294 294 294 295 296 298 301 303 304 304 304 305 306 306 307 307 310 313 313 313 313 312 311 310 310 308 308 307 307 309 311 313 315 316 317 316 315 314 314 314 314 315 315 314 312 309 306 305 304 303 302 301 301 300 300 301 301 301 301 301 301 300 300 300 299 298 298 297 296 295 295 294 294 293 293 293 293 293 292 292 292 292 292
295 294 294 293 292 291 291 292 294 296 299 301 303 304 305 308 309 309 311 314 315 316 315 315 314 313 312 311 310 309 309 308 310 311 313 315 317 318 317 315 314 314 313 313 313 313 314 312 309 306 305 304 303 301 300 300 300 301 302 303 304 304 303 303 302 301 301 300 299 298 297 296 295 294 293 292 292 292 292 291 291 291 291 291 291 291
291 291 290 288 286 285 285 288 291 295 299 303 305 307 310 312 314 314 315 316 316 316 315 314 314 313 313 313 312 311 309 309 310 312 314 315 317 317 317 316 315 315 314 313 313 314 314 313 310 308 306 305 305 304 303 302 303 304 305 306 307 306 305 304 303 303 302 301 300 298 297 295 294 293 292 291 291 291 290 290 290 290 290 291 291 291
284 284 283 282 280 281 284 288 293 297 302 306 308 311 312 314 315 315 315 315 315 315 314 314 314 314 314 314 314 312 310 309 311 313 315 316 318 319 319 318 317 317 317 316 316 316 316 315 313 311 309 308 307 307 306 306 307 307 308 308 308 308 306 306 305 304 303 302 301 299 298 296 294 293 292 291 290 290 290 290 290 291 291 292 292 292
275 275 275 276 279 282 287 292 296 301 304 307 309 311 312 313 313 314 314 314 315 315 316 316 316 316 316 317 316 315 312 311 312 314 316 318 319 320 321 320 320 319 319 319 318 319 319 318 316 313 311 311 310 309 309 309 310 310 310 310 310 309 308 307 307 307 306 305 303 302 300 297 295 294 293 292 292 291 291 292 292 293 293 294 294 294
267 267 270 274 279 284 289 294 298 301 304 307 308 310 312 313 314 315 316 317 318 319 319 319 319 319 319 320 319 318 315 314 314 316 318 319 320 322 322 322 321 320 319 319 319 319 319 319 318 316 313 313 312 312 311 311 312 312 312 312 311 311 311 310 310 310 309 308 306 304 302 300 298 296 295 294 294 294 294 295 295 295 296 296 296 295
262 265 270 275 281 286 291 296 299 302 305 307 310 312 313 315 317 318 320 320 321 322 322 322 322 322 321 321 321 319 317 315 316 317 318 319 320 322 322 322 321 320 320 319 319 319 319 319 319 318 317 316 316 316 315 315 315 314 314 314 314 314 313 313 313 312 312 311 309 307 305 303 301 299 298 297 296 296 296 297 297 297 297 297 297 297
263 268 274 278 284 289 294 298 301 303 306 309 311 313 315 317 319 320 321 323 323 324 324 324 324 323 323 322 321 320 318 316 317 318 319 319 320 321 322 322 321 320 320 319 319 319 319 320 320 320 319 319 319 319 319 319 318 317 317 316 316 317 317 316 315 315 314 313 311 309 307 305 303 302 300 299 298 298 298 298 298 298 297 297 297 298
267 272 278 283 287 292 295 298 301 304 307 309 312 315 317 318 320 321 322 324 324 325 325 325 325 324 324 323 322 321 319 318 318 318 319 319 320 320 321 322 321 320 320 320 320 320 320 320 321 321 321 321 322 322 322 321 320 319 319 318 318 318 318 318 317 316 315 314 313 311 309 307 305 303 302 301 300 299 299 299 299 298 298 298 299 299
274 278 282 286 289 292 295 298 301 304 307 309 312 315 317 318 320 321 323 324 324 325 325 325 325 324 324 323 322 321 320 319 318 318 318 319 319 319 320 321 321 320 320 320 320 320 320 321 321 322 322 323 324 324 324 323 322 321 320 319 319 319 319 318 317 316 316 315 314 313 311 309 308 306 304 303 302 301 301 300 300 300 300 300 300 300
277 281 284 286 289 292 295 298 301 304 307 309 312 314 316 318 320 321 322 322 323 323 323 323 323 323 322 321 321 320 319 319 318 318 318 318 318 318 319 320 320 319 319 320 320 320 320 321 321 322 322 323 324 325 325 324 323 321 319 319 319 319 319 318 317 317 316 316 315 314 313 311 310 308 307 305 304 303 302 301 300 300 299 299 299 299
278 281 284 286 289 292 295 299 301 304 307 309 312 314 316 318 319 320 320 321 321 321 321 321 322 321 321 320 319 318 318 318 317 317 317 317 317 317 317 318 318 318 318 319 319 320 320 320 321 321 321 322 322 323 324 324 323 321 319 318 317 318 319 319 318 317 317 316 316 315 314 312 311 310 308 307 306 304 303 301 300 299 299 298 297 296
279 282 284 287 290 294 296 299 302 305 308 310 312 314 315 317 317 318 318 319 318 319 319 320 320 320 319 318 318 317 316 316 316 316 316 315 315 316 316 316 317 317 317 317 318 318 319 319 319 320 320 320 320 321 322 323 322 321 319 317 317 318 319 319 318 317 317 316 316 315 314 313 312 311 310 309 307 306 304 303 301 300 299 298 297 296
281 283 287 290 292 295 298 301 303 305 307 309 311 312 313 314 314 315 315 316 316 317 317 318 318 318 318 317 316 316 315 315 315 314 314 314 314 314 315 315 315 316 316 316 316 317 317 317 317 317 318 318 318 319 320 321 321 320 319 318 317 317 318 319 318 317 316 316 315 315 314 313 312 311 311 310 308 307 305 303 302 301 300 298 297 295
283 286 289 291 294 296 298 300 302 305 306 307 308 309 310 311 312 313 313 313 313 314 314 315 315 315 315 315 314 314 313 313 313 312 312 312 312 313 313 313 314 314 314 314 315 315 315 315 315 315 315 316 316 317 318 320 320 319 318 317 316 316 316 317 317 316 316 315 315 314 313 312 311 311 310 309 308 306 304 303 301 300 298 297 295 294
285 287 290 292 294 296 298 300 301 303 304 306 307 308 309 310 310 311 311 311 311 311 311 312 312 312 312 311 311 311 311 311 311 311 310 310 311 311 311 311 312 312 312 312 313 313 313 313 313 313 314 314 314 315 317 318 318 318 317 316 316 316 316 316 316 315 314 314 313 312 312 311 310 310 309 308 307 305 303 301 299 298 296 295 293 292
285 287 290 291 294 296 297 299 300 302 303 304 306 307 308 309 310 309 309 309 309 309 309 309 310 310 310 310 309 309 309 309 309 309 309 309 309 309 309 310 310 310 310 310 311 311 311 311 311 312 312 312 313 314 316 317 317 316 316 315 315 315 315 316 316 315 313 312 311 311 310 309 309 308 308 307 306 305 303 300 298 296 294 293 292 291
285 287 289 291 293 295 296 297 299 300 302 304 305 307 307 308 308 308 307 307 307 307 308 308 309 309 309 309 309 308 308 308 308 307 307 307 307 307 307 308 308 308 308 309 309 309 309 309 310 310 310 311 312 313 314 315 315 314 314 314 314 313 314 315 315 314 313 311 310 310 310 309 308 308 307 307 306 305 304 302 300 297 295 293 291 289
285 287 289 291 292 294 295 296 298 300 302 303 305 306 306 306 306 306 305 305 306 306 307 308 309 309 309 310 309 308 308 308 307 307 306 306 306 306 306 306 306 306 306 306 307 307 307 308 308 308 309 309 310 312 313 313 313 313 313 313 313 313 313 313 313 313 312 311 310 310 310 310 309 309 309 308 308 308 307 306 304 302 299 296 293 290
284 287 289 290 291 293 294 296 298 300 302 303 304 304 304 304 304 304 304 305 305 306 307 308 309 310 310 310 310 309 309 309 308 307 307 306 305 305 305 305 304 304 304 304 304 305 305 306 306 307 307 308 310 311 312 312 312 312 312 312 312 312 312 312 312 312 311 311 311 311 311 311 312 312 311 311 311 312 312 311 310 307 305 301 297 293
284 286 288 289 291 292 294 296 298 300 301 302 302 302 302 302 302 302 303 304 305 307 308 309 310 310 311 311 311 310 310 310 310 309 308 307 306 306 305 304 304 304 303 303 303 303 303 304 304 305 306 307 308 310 311 311 310 311 311 312 312 311 311 311 311 311 310 310 311 312 313 314 315 315 315 314 314 314 315 314 313 311 308 305 301 297
284 286 287 289 291 292 294 296 298 300 300 300 300 300 300 301 302 303 303 305 306 307 309 310 311 311 311 311 311 311 311 311 311 310 309 308 307 307 306 305 304 304 303 303 302 302 302 303 303 304 305 306 308 309 309 310 310 310 311 311 311 311 311 311 311 311 311 311 312 314 315 317 317 317 317 316 315 315 315 315 314 312 310 306 302 298
284 286 288 289 291 293 295 296 298 298 298 298 298 299 300 301 302 303 304 306 307 308 309 310 311 311 311 311 311 311 311 311 311 310 310 309 308 307 307 306 305 304 303 302 302 302 302 302 303 304 306 307 308 309 309 310 311 311 311 312 312 311 311 311 311 312 312 313 314 315 317 317 317 317 316 315 314 314 314 314 313 312 309 306 302 298
284 286 288 290 292 293 295 296 296 297 297 297 298 298 299 300 302 303 304 306 307 309 310 310 311 311 311 311 311 311 311 311 311 310 310 309 308 307 307 306 305 304 303 303 302 302 302 303 304 306 308 310 310 310 311 312 312 313 313 312 312 312 312 312 312 313 313 314 315 316 317 317 316 316 315 314 313 312 312 312 312 311 308 305 301 298
Height
3045 3045 3044 3044 3044 3044 3044 3044 3044 3044 3043 3043 3043 3043 3043 3043 3043 3043 3043 3043 3043 3043 3042 3042 3042 3041 3040 3040 3040 3039 3038 3038 3037 3036 3036 3035 3035 3035 3034 3033 3033 3032 3032 3031 3031 3030 3030 3030 3029 3029 3028 3028 3027 3027 3026 3026 3025 3025 3025 3024 3023 3023 3022 3021 3020 3020 3019 3019 3018 3018 3017 3017 3017 3016 3016 3015 3015 3015 3014 3014 3013 3013 3012 3012 3012 3011
3042 3042 3042 3042 3042 3041 3041 3041 3041 3041 3040 3040 3040 3040 3040 3040 3040 3040 3040 3040 3040 3040 3039 3039 3039 3038 3038 3037 3036 3035 3035 3034 3034 3033 3032 3032 3031 3030 3030 3030 3029 3029 3028 3028 3027 3027 3026 3026 3025 3025 3024 3024 3023 3023 3022 3022 3021 3021 3020 3020 3019 3018 3018 3017 3016 3015 3015 3014 3014 3013 3013 3013 3012 3012 3012 3011 3011 3010 3010 3009 3009 3008 3008 3008 3007 3007
3039 3039 3039 3039 3039 3039 3038 3038 3038 3038 3038 3038 3038 3038 3038 3037 3037 3037 3037 3037 3036 3036 3036 3036 3035 3035 3034 3034 3033 3032 3031 3031 3030 3029 3029 3028 3027 3027 3026 3025 3025 3025 3024 3024 3023 3023 3022 3022 3021 3021 3020 3020 3019 3019 3018 3018 3017 3016 3016 3015 3014 3014 3013 3012 3012 3011 3010 3010 3010 3009 3009 3008 3008 3008 3007 3007 3006 3006 3005 3005 3004 3004 3004 3003 3003 3003
3037 3036 3036 3036 3036 3036 3035 3035 3035 3035 3035 3035 3035 3035 3035 3035 3035 3035 3034 3034 3034 3033 3033 3033 3032 3032 3031 3030 3030 3029 3028 3027 3026 3025 3025 3024 3024 3023 3022 3022 3021 3020 3020 3020 3020 3019 3019 3018 3017 3017 3016 3015 3015 3015 3014 3013 3013 3012 3011 3010 3010 3009 3009 3008 3007 3007 3006 3006 3005 3005 3005 3004 3004 3004 3003 3003 3002 3002 3001 3001 3000 3000 3000 2999 2999 2999
3034 3034 3034 3034 3034 3033 3033 3033 3033 3032 3033 3033 3033 3032 3032 3032 3032 3032 3031 3031 3031 3030 3030 3030 3029 3029 3028 3027 3026 3025 3025 3024 3023 3022 3021 3020 3020 3019 3018 3018 3017 3017 3016 3016 3015 3015 3015 3014 3013 3013 3012 3012 3011 3010 3010 3009 3008 3008 3007 3006 3005 3005 3004 3004 3003 3003 3002 3001 3001 3001 3000 3000 3000 2999 2999 2998 2998 2998 2997 2997 2996 2996 2996 2995 2995 2995
3032 3032 3032 3032 3032 3031 3030 3030 3030 3030 3030 3030 3030 3030 3030 3029 3029 3029 3029 3028 3028 3027 3027 3027 3026 3025 3025 3024 3023 3022 3021 3020 3019 3018 3017 3017 3016 3015 3015 3014 3014 3013 3013 3012 3012 3011 3010 3010 3009 3009 3008 3008 3007 3006 3005 3005 3004 3003 3002 3002 3001 3000 3000 2999 2999 2998 2998 2997 2997 2997 2996 2996 2996 2995 2995 2995 2994 2994 2994 2993 2993 2993 2992 2992 2992 2991
3030 3030 3030 3030 3030 3029 3029 3028 3028 3028 3028 3028 3027 3027 3027 3027 3026 3026 3026 3025 3025 3025 3024 3024 3023 3022 3021 3020 3019 3018 3017 3016 3015 3014 3014 3013 3012 3012 3011 3011 3010 3010 3009 3008 3008 3007 3006 3006 3005 3005 3004 3004 3003 3002 3001 3000 3000 2999 2998 2997 2997 2996 2995 2995 2995 2994 2994 2994 2993 2993 2993 2992 2992 2992 2991 2991 2990 2990 2990 2990 2990 2989 2989 2989 2989 2988
3028 3028 3028 3028 3027 3026 3026 3026 3026 3025 3025 3025 3025 3025 3024 3024 3024 3024 3023 3023 3022 3022 3021 3020 3020 3019 3018 3016 3015 3014 3013 3012 3011 3010 3010 3010 3009 3008 3008 3007 3006 3006 3005 3004 3004 3003 3002 3002 3001 3000 3000 2999 2999 2998 2997 2996 2995 2995 2994 2993 2993 2992 2991 2991 2991 2990 2990 2990 2990 2989 2989 2989 2988 2988 2988 2987 2987 2987 2987 2986 2986 2986 2986 2985 2985 2985
3026 3025 3025 3025 3024 3024 3024 3023 3023 3023 3023 3022 3022 3022 3022 3021 3021 3021 3020 3020 3019 3018 3018 3017 3016 3015 3014 3013 3012 3010 3009 3008 3008 3007 3007 3006 3006 3005 3005 3004 3003 3002 3001 3000 3000 2999 2998 2998 2997 2996 2995 2995 2994 2993 2993 2992 2991 2990 2990 2989 2989 2988 2988 2987 2987 2987 2986 2986 2986 2986 2985 2985 2985 2985 2984 2984 2984 2984 2983 2983 2983 2983 2982 2982 2982 2982
3023 3023 3022 3022 3022 3021 3021 3021 3020 3020 3020 3020 3019 3019 3019 3018 3018 3017 3017 3016 3015 3015 3014 3013 3012 3012 3010 3010 3008 3007 3005 3005 3004 3004 3004 3003 3003 3002 3001 3000 2999 2998 2998 2997 2996 2995 2994 2994 2993 2992 2991 2990 2990 2989 2988 2988 2987 2986 2985 2985 2985 2984 2984 2984 2983 2983 2983 2983 2982 2982 2982 2981 2981 2981 2981 2980 2980 2980 2980 2980 2979 2979 2979 2979 2978 2978
3020 3020 3020 3020 3019 3019 3019 3018 3018 3018 3017 3017 3016 3016 3016 3015 3015 3014 3013 3012 3012 3011 3010 3010 3009 3008 3007 3006 3005 3004 3003 3001 3001 3000 3000 3000 2999 2999 2998 2997 2996 2995 2994 2993 2992 2991 2990 2990 2989 2988 2987 2987 2986 2985 2984 2984 2983 2982 2982 2981 2981 2981 2980 2980 2980 2980 2979 2979 2979 2979 2978 2978 2978 2977 2977 2977 2977 2976 2976 2976 2976 2975 2975 2975 2975 2974
3018 3018 3018 3017 3017 3017 3016 3016 3015 3015 3015 3014 3013 3013 3012 3012 3011 3011 3010 3009 3009 3008 3007 3006 3005 3005 3004 3003 3001 3000 3000 2999 2998 2997 2997 2996 2996 2995 2994 2993 2992 2992 2991 2990 2989 2988 2987 2986 2985 2985 2984 2983 2982 2982 2981 2980 2980 2979 2979 2978 2978 2978 2977 2977 2977 2976 2976 2976 2975 2975 2975 2975 2975 2974 2974 2974 2973 2973 2973 2972 2972 2972 2971 2971 2971 2970
3016 3016 3016 3015 3015 3015 3014 3014 3013 3012 3011 3011 3010 3010 3009 3008 3008 3007 3006 3006 3005 3005 3004 3003 3002 3002 3000 2999 2998 2997 2996 2995 2995 2995 2994 2993 2992 2991 2990 2990 2989 2988 2988 2987 2986 2985 2984 2983 2982 2982 2981 2980 2980 2979 2978 2977 2977 2976 2976 2975 2975 2975 2974 2974 2974 2973 2973 2973 2972 2972 2972 2971 2971 2971 2970 2970 2970 2970 2969 2969 2968 2968 2968 2967 2967 2967
3014 3014 3014 3013 3013 3012 3011 3010 3010 3009 3008 3008 3007 3006 3006 3005 3004 3004 3003 3002 3002 3001 3001 3000 3000 2999 2997 2995 2994 2993 2992 2992 2992 2991 2991 2990 2989 2988 2987 2986 2986 2985 2985 2984 2983 2982 2981 2981 2980 2979 2979 2978 2977 2976 2976 2975 2974 2974 2973 2973 2972 2972 2971 2971 2971 2970 2970 2970 2969 2969 2968 2968 2968 2967 2967 2967 2966 2966 2965 2965 2965 2965 2964 2964 2964 2963
3012 3011 3011 3010 3010 3009 3008 3008 3007 3006 3005 3005 3004 3003 3002 3001 3000 3000 3000 2999 2998 2998 2997 2997 2996 2995 2994 2992 2990 2989 2988 2988 2988 2988 2988 2987 2985 2984 2984 2984 2983 2983 2982 2982 2980 2980 2979 2979 2978 2977 2976 2976 2975 2974 2974 2973 2972 2971 2971 2970 2970 2970 2969 2968 2968 2968 2967 2967 2966 2966 2965 2965 2965 2964 2964 2964 2963 2963 2962 2962 2962 2961 2961 2960 2960 2960
3009 3009 3008 3007 3007 3006 3005 3005 3004 3003 3002 3001 3000 3000 2999 2998 2997 2997 2996 2996 2995 2995 2994 2993 2993 2992 2991 2989 2986 2985 2985 2985 2985 2985 2985 2984 2982 2981 2982 2981 2981 2980 2980 2980 2979 2978 2977 2977 2976 2975 2975 2974 2973 2972 2972 2971 2970 2969 2969 2968 2968 2967 2966 2966 2965 2965 2965 2964 2964 2963 2963 2962 2962 2961 2961 2960 2960 2960 2959 2959 2959 2958 2958 2957 2957 2956
3006 3006 3005 3005 3004 3003 3002 3001 3000 3000 2999 2998 2997 2996 2996 2995 2994 2994 2993 2992 2992 2991 2990 2990 2989 2989 2988 2986 2983 2982 2982 2982 2982 2982 2983 2981 2980 2979 2980 2979 2979 2979 2978 2978 2977 2976 2976 2975 2975 2974 2973 2972 2972 2971 2970 2969 2968 2967 2967 2966 2965 2965 2964 2963 2963 2962 2962 2961 2961 2960 2960 2960 2959 2958 2958 2958 2957 2957 2956 2956 2955 2955 2955 2954 2954 2953
3004 3003 3002 3002 3001 3000 2999 2998 2998 2997 2996 2995 2995 2994 2993 2992 2991 2991 2990 2989 2989 2988 2987 2986 2985 2985 2985 2983 2981 2980 2980 2980 2980 2980 2980 2980 2978 2978 2978 2977 2977 2977 2976 2976 2975 2975 2975 2974 2973 2973 2972 2971 2970 2969 2968 2967 2966 2965 2965 2964 2963 2962 2961 2961 2960 2960 2959 2959 2958 2958 2957 2957 2956 2955 2955 2955 2954 2954 2954 2953 2953 2952 2952 2951 2951 2950
3001 3000 2999 2999 2998 2997 2996 2996 2995 2994 2993 2993 2992 2991 2990 2989 2989 2988 2987 2986 2985 2985 2984 2983 2982 2982 2982 2981 2979 2979 2979 2979 2978 2979 2979 2978 2977 2976 2976 2976 2975 2975 2975 2975 2974 2974 2973 2973 2972 2971 2970 2969 2968 2967 2966 2965 2964 2963 2962 2961 2960 2960 2959 2958 2958 2957 2956 2956 2955 2955 2954 2954 2953 2953 2952 2952 2952 2951 2951 2950 2950 2949 2949 2949 2948 2948
2998 2997 2996 2996 2995 2995 2994 2993 2992 2991 2991 2990 2989 2989 2988 2987 2986 2985 2984 2983 2982 2982 2981 2981 2980 2980 2980 2979 2978 2977 2977 2977 2977 2977 2977 2976 2976 2975 2975 2975 2975 2975 2974 2974 2973 2972 2972 2971 2970 2970 2969 2967 2966 2965 2964 2963 2962 2961 2960 2959 2958 2957 2956 2956 2955 2955 2954 2953 2953 2952 2952 2951 2950 2950 2950 2949 2949 2948 2948 2948 2947 2946 2946 2946 2945 2945
2995 2995 2994 2993 2993 2992 2991 2990 2989 2989 2988 2987 2987 2986 2985 2984 2984 2983 2982 2981 2980 2980 2980 2979 2979 2978 2978 2977 2976 2976 2976 2975 2975 2976 2976 2975 2975 2975 2974 2974 2974 2974 2973 2973 2972 2971 2970 2970 2969 2968 2967 2965 2964 2963 2962 2961 2960 2959 2958 2957 2956 2955 2954 2953 2952 2952 2951 2950 2950 2949 2949 2948 2948 2947 2947 2946 2946 2945 2945 2945 2944 2944 2943 2943 2943 2942
2993 2992 2991 2990 2990 2989 2988 2988 2987 2986 2985 2985 2984 2983 2983 2982 2981 2980 2980 2979 2979 2979 2978 2978 2977 2977 2976 2976 2975 2975 2975 2975 2975 2975 2975 2975 2975 2974 2973 2973 2973 2972 2972 2971 2970 2970 2969 2968 2967 2966 2965 2964 2962 2961 2960 2959 2958 2957 2956 2955 2954 2953 2952 2951 2950 2949 2949 2948 2947 2947 2946 2945 2945 2945 2944 2943 2943 2942 2942 2942 2941 2941 2940 2940 2940 2939
2990 2990 2989 2988 2987 2986 2986 2985 2984 2984 2983 2982 2982 2981 2981 2980 2980 2979 2978 2978 2978 2977 2977 2977 2976 2976 2975 2975 2975 2974 2974 2974 2974 2974 2974 2974 2974 2973 2972 2972 2971 2971 2970 2970 2969 2968 2967 2966 2965 2964 2963 2961 2960 2959 2958 2957 2956 2955 2954 2953 2952 2951 2950 2949 2948 2947 2946 2945 2945 2944 2944 2943 2942 2942 2941 2940 2940 2940 2939 2939 2938 2938 2937 2937 2937 2936
2988 2987 2987 2986 2985 2984 2984 2983 2982 2981 2981 2980 2980 2979 2979 2979 2978 2978 2977 2977 2977 2977 2976 2976 2976 2975 2975 2975 2974 2973 2973 2973 2972 2972 2972 2973 2972 2971 2971 2970 2970 2970 2969 2968 2968 2967 2966 2965 2963 2962 2961 2960 2959 2958 2956 2955 2954 2953 2952 2951 2950 2949 2948 2947 2946 2945 2945 2944 2943 2942 2941 2940 2940 2939 2939 2938 2937 2937 2936 2935 2935 2935 2934 2934 2934 2933
2986 2985 2985 2984 2983 2982 2982 2981 2980 2980 2979 2979 2978 2978 2977 2977 2977 2977 2977 2976 2976 2976 2976 2976 2975 2975 2974 2974 2973 2972 2971 2971 2971 2971 2971 2971 2971 2970 2969 2969 2968 2968 2967 2967 2966 2965 2964 2963 2962 2960 2959 2958 2957 2956 2955 2954 2953 2952 2951 2950 2949 2947 2946 2945 2945 2943 2943 2942 2941 2940 2939 2938 2937 2937 2936 2935 2935 2934 2933 2933 2932 2931 2931 2930 2930 2930
2984 2983 2983 2982 2981 2980 2980 2979 2979 2978 2978 2977 2977 2977 2977 2976 2976 2976 2976 2976 2976 2975 2975 2975 2974 2974 2973 2973 2972 2971 2970 2970 2969 2969 2969 2969 2969 2968 2967 2967 2966 2965 2965 2965 2964 2963 2962 2961 2960 2959 2958 2957 2956 2955 2954 2953 2951 2950 2949 2948 2947 2946 2945 2944 2943 2942 2941 2940 2939 2938 2937 2936 2935 2934 2934 2933 2932 2931 2930 2930 2929 2929 2928 2927 2927 2927
2982 2981 2980 2980 2979 2979 2978 2978 2977 2977 2977 2977 2977 2976 2976 2976 2976 2975 2975 2975 2975 2974 2974 2973 2973 2972 2972 2971 2970 2970 2969 2968 2968 2967 2967 2967 2967 2966 2965 2965 2964 2963 2963 2963 2962 2962 2961 2960 2959 2958 2957 2956 2955 2954 2953 2951 2950 2949 2948 2947 2946 2945 2943 2942 2941 2940 2939 2938 2937 2936 2935 2934 2933 2932 2931 2930 2930 2929 2928 2927 2926 2925 2925 2924 2924 2924
2979 2979 2979 2978 2978 2977 2977 2977 2976 2976 2976 2976 2976 2976 2976 2975 2975 2975 2974 2974 2973 2973 2972 2972 2971 2971 2970 2970 2969 2968 2967 2966 2966 2965 2965 2965 2965 2964 2963 2962 2962 2961 2960 2960 2960 2960 2960 2959 2957 2956 2955 2955 2954 2953 2951 2950 2949 2948 2947 2945 2944 2943 2941 2940 2939 2938 2937 2936 2935 2934 2932 2931 2930 2930 2929 2928 2927 2926 2925 2925 2924 2923 2922 2921 2921 2921
2977 2977 2977 2977 2976 2976 2976 2976 2976 2975 2975 2975 2975 2975 2975 2974 2974 2973 2973 2972 2972 2971 2971 2970 2970 2970 2969 2969 2968 2967 2966 2965 2964 2964 2963 2963 2962 2962 2961 2960 2960 2959 2958 2958 2958 2958 2958 2957 2956 2955 2954 2953 2952 2951 2950 2949 2948 2946 2945 2944 2943 2941 2940 2938 2937 2936 2935 2934 2933 2931 2930 2929 2928 2927 2926 2925 2925 2924 2923 2922 2921 2920 2919 2919 2918 2918
2976 2976 2976 2975 2975 2975 2975 2975 2975 2975 2974 2974 2974 2973 2973 2973 2972 2972 2971 2971 2970 2970 2970 2969 2969 2968 2968 2967 2967 2965 2964 2963 2962 2962 2961 2961 2961 2960 2960 2959 2957 2956 2956 2955 2955 2955 2956 2956 2955 2953 2952 2951 2950 2950 2948 2947 2946 2945 2943 2942 2941 2940 2938 2936 2935 2934 2933 2932 2931 2930 2928 2927 2926 2925 2924 2923 2922 2921 2920 2920 2919 2918 2917 2916 2915 2915
2975 2975 2975 2975 2974 2974 2974 2974 2974 2973 2973 2973 2972 2972 2971 2971 2971 2970 2970 2970 2969 2969 2968 2968 2967 2967 2966 2966 2965 2964 2963 2961 2960 2960 2959 2959 2959 2958 2957 2956 2955 2955 2954 2952 2952 2952 2953 2953 2953 2952 2951 2950 2949 2948 2946 2945 2944 2943 2941 2940 2939 2938 2936 2935 2934 2932 2931 2930 2929 2928 2926 2925 2924 2923 2921 2920 2920 2919 2918 2917 2916 2915 2914 2913 2913 2912
2974 2974 2974 2973 2973 2973 2973 2973 2972 2972 2972 2971 2971 2971 2970 2970 2970 2969 2969 2968 2968 2967 2967 2966 2966 2965 2965 2964 2963 2963 2961 2960 2959 2958 2957 2957 2956 2956 2955 2955 2954 2953 2952 2951 2950 2949 2949 2950 2950 2950 2949 2948 2947 2946 2945 2943 2942 2941 2940 2938 2937 2936 2935 2933 2932 2930 2929 2928 2927 2925 2924 2923 2921 2920 2919 2918 2917 2916 2916 2915 2914 2913 2911 2910 2910 2909
2973 2973 2973 2972 2972 2972 2972 2971 2971 2971 2970 2970 2970 2970 2969 2969 2968 2968 2967 2967 2966 2966 2965 2965 2964 2964 2963 2962 2961 2961 2960 2958 2957 2956 2956 2955 2955 2954 2954 2953 2952 2951 2950 2949 2948 2947 2947 2947 2947 2947 2947 2946 2945 2944 2943 2941 2940 2939 2937 2936 2935 2934 2932 2931 2930 2928 2927 2926 2925 2923 2922 2920 2919 2918 2917 2916 2915 2914 2913 2912 2911 2910 2909 2908 2906 2905
2972 2972 2971 2971 2971 2971 2971 2970 2970 2970 2970 2969 2969 2968 2968 2967 2967 2966 2966 2965 2965 2964 2964 2963 2962 2962 2961 2961 2960 2959 2958 2957 2956 2955 2954 2954 2953 2952 2952 2951 2950 2949 2948 2948 2947 2946 2945 2945 2944 2944 2944 2944 2943 2942 2941 2939 2938 2937 2935 2934 2933 2931 2930 2929 2927 2926 2925 2924 2922 2921 2920 2918 2917 2916 2915 2914 2913 2912 2911 2910 2909 2908 2906 2905 2904 2902
2971 2971 2970 2970 2970 2970 2970 2969 2969 2969 2968 2968 2967 2967 2966 2966 2965 2965 2964 2964 2963 2963 2962 2961 2961 2960 2960 2959 2959 2958 2957 2956 2955 2954 2953 2952 2951 2951 2950 2950 2949 2947 2946 2946 2945 2944 2943 2943 2942 2941 2941 2940 2940 2940 2939 2937 2936 2935 2933 2932 2930 2929 2927 2926 2925 2923 2922 2921 2920 2919 2917 2916 2915 2914 2913 2911 2910 2910 2909 2908 2907 2905 2904 2903 2901 2900
2970 2970 2970 2969 2969 2969 2968 2968 2968 2967 2967 2966 2966 2965 2965 2964 2964 2963 2963 2962 2962 2961 2960 2960 2959 2959 2958 2958 2957 2956 2955 2955 2953 2952 2951 2950 2950 2949 2948 2948 2947 2946 2945 2944 2943 2942 2941 2940 2940 2939 2938 2937 2937 2937 2936 2935 2934 2932 2931 2930 2928 2927 2925 2924 2922 2921 2920 2919 2917 2916 2915 2914 2912 2911 2910 2909 2908 2907 2906 2905 2904 2903 2902 2900 2899 2897
2969 2969 2968 2968 2968 2968 2967 2967 2966 2966 2965 2965 2965 2964 2964 2963 2962 2962 2961 2961 2960 2960 2959 2959 2958 2957 2957 2956 2955 2955 2954 2953 2952 2951 2950 2949 2948 2947 2946 2946 2945 2944 2943 2941 2941 2940 2939 2938 2937 2936 2936 2935 2934 2933 2933 2932 2931 2930 2929 2928 2926 2925 2923 2922 2920 2918 2917 2916 2915 2914 2912 2911 2910 2909 2908 2907 2906 2905 2904 2903 2902 2900 2899 2898 2896 2895
2968 2968 2967 2967 2967 2966 2966 2966 2965 2965 2964 2964 2963 2963 2962 2962 2961 2961 2960 2960 2959 2959 2958 2957 2957 2956 2955 2955 2954 2953 2952 2951 2950 2949 2948 2947 2946 2945 2945 2944 2943 2942 2941 2940 2938 2937 2936 2935 2934 2933 2933 2932 2931 2931 2930 2929 2928 2927 2926 2925 2925 2923 2921 2920 2918 2916 2915 2913 2912 2911 2910 2908 2907 2906 2905 2904 2903 2902 2901 2900 2900 2898 2897 2895 2895 2893
2967 2966 2966 2966 2966 2965 2965 2964 2964 2964 2963 2963 2962 2961 2961 2960 2960 2960 2959 2958 2958 2957 2957 2956 2956 2955 2954 2953 2952 2951 2950 2950 2949 2948 2946 2945 2944 2943 2943 2942 2941 2940 2939 2938 2936 2935 2934 2933 2932 2930 2930 2929 2929 2928 2928 2926 2925 2924 2923 2923 2922 2921 2920 2918 2916 2914 2912 2911 2910 2909 2907 2906 2905 2904 2903 2902 2901 2900 2899 2898 2897 2896 2894 2893 2892 2891
2966 2965 2965 2965 2965 2964 2964 2963 2963 2962 2962 2961 2961 2960 2960 2959 2959 2958 2958 2957 2956 2956 2955 2955 2955 2954 2953 2952 2951 2950 2949 2948 2947 2946 2945 2944 2942 2941 2940 2940 2939 2938 2937 2936 2935 2933 2932 2931 2930 2929 2927 2926 2925 2925 2925 2924 2923 2921 2920 2919 2919 2918 2918 2916 2914 2912 2910 2909 2907 2906 2905 2903 2902 2901 2900 2899 2898 2897 2896 2895 2894 2893 2892 2890 2889 2889
2965 2965 2964 2964 2963 2963 2962 2962 2961 2961 2960 2960 2960 2959 2959 2958 2958 2957 2956 2956 2955 2955 2954 2954 2953 2952 2952 2951 2950 2949 2948 2946 2945 2944 2943 2942 2940 2940 2938 2937 2936 2935 2935 2934 2933 2931 2930 2929 2927 2926 2925 2924 2923 2922 2922 2922 2920 2919 2917 2916 2915 2915 2915 2914 2912 2910 2909 2907 2905 2904 2902 2901 2900 2899 2898 2897 2896 2895 2894 2892 2891 2890 2889 2888 2887 2886
2964 2963 2963 2963 2962 2962 2961 2961 2960 2960 2959 2959 2958 2958 2957 2957 2956 2956 2955 2955 2954 2953 2953 2952 2952 2951 2950 2950 2948 2947 2946 2945 2944 2943 2941 2940 2939 2938 2936 2935 2934 2933 2932 2931 2930 2929 2928 2927 2925 2924 2923 2922 2921 2920 2919 2919 2918 2917 2915 2913 2912 2911 2911 2911 2910 2909 2906 2905 2903 2902 2900 2899 2897 2896 2895 2895 2894 2892 2891 2890 2889 2888 2887 2885 2884 2883
2962 2962 2962 2961 2961 2960 2960 2960 2959 2959 2958 2958 2957 2957 2956 2955 2955 2954 2954 2953 2952 2952 2951 2951 2950 2950 2949 2949 2947 2946 2945 2944 2942 2941 2940 2938 2937 2936 2935 2933 2932 2931 2930 2929 2928 2927 2926 2925 2924 2922 2921 2920 2919 2917 2916 2916 2915 2914 2913 2911 2909 2908 2907 2907 2907 2906 2905 2903 2901 2900 2898 2896 2895 2894 2893 2892 2891 2890 2889 2888 2887 2886 2885 2883 2882 2881
2961 2961 2960 2960 2960 2959 2959 2958 2958 2957 2957 2956 2956 2955 2955 2954 2953 2953 2952 2951 2951 2950 2950 2949 2949 2948 2947 2947 2946 2945 2944 2942 2941 2939 2938 2936 2935 2934 2933 2931 2930 2929 2928 2927 2926 2925 2924 2923 2922 2920 2919 2917 2916 2915 2914 2913 2912 2911 2910 2909 2907 2905 2904 2904 2903 2902 2901 2900 2899 2898 2896 2894 2893 2892 2891 2890 2889 2888 2887 2886 2885 2884 2883 2881 2880 2879
2960 2960 2959 2959 2959 2958 2958 2957 2957 2956 2955 2955 2954 2953 2953 2952 2951 2951 2950 2950 2949 2949 2948 2947 2947 2946 2945 2945 2944 2943 2942 2941 2940 2938 2936 2935 2933 2932 2930 2929 2928 2927 2925 2925 2923 2922 2921 2920 2919 2918 2917 2915 2914 2913 2912 2910 2910 2908 2907 2906 2905 2903 2902 2901 2900 2899 2898 2897 2896 2895 2893 2892 2890 2889 2888 2887 2886 2886 2885 2884 2883 2882 2880 2879 2878 2877
2959 2959 2958 2958 2957 2957 2956 2956 2955 2955 2954 2953 2952 2952 2951 2950 2950 2949 2949 2948 2947 2947 2946 2945 2945 2944 2943 2943 2942 2941 2940 2939 2938 2937 2935 2934 2932 2930 2929 2928 2926 2925 2924 2922 2921 2920 2919 2918 2916 2915 2914 2913 2912 2911 2910 2909 2907 2905 2904 2903 2902 2901 2900 2899 2898 2896 2895 2893 2892 2891 2890 2889 2887 2885 2884 2883 2883 2883 2882 2881 2880 2879 2878 2877 2876 2875
2958 2957 2957 2956 2956 2955 2955 2954 2954 2953 2952 2951 2951 2950 2950 2949 2948 2948 2947 2946 2945 2945 2944 2943 2942 2942 2941 2940 2939 2938 2937 2937 2936 2935 2933 2932 2930 2929 2927 2926 2925 2923 2922 2920 2919 2918 2917 2915 2914 2913 2912 2910 2909 2908 2908 2906 2905 2903 2901 2900 2899 2898 2897 2896 2895 2894 2892 2890 2889 2888 2887 2885 2884 2882 2880 2880 2879 2879 2879 2878 2877 2876 2875 2874 2873 2872
2956 2956 2955 2955 2954 2954 2953 2953 2952 2951 2951 2950 2949 2949 2948 2947 2946 2946 2945 2944 2944 2943 2942 2941 2940 2940 2939 2938 2937 2935 2935 2934 2933 2932 2931 2930 2928 2927 2925 2924 2923 2921 2920 2918 2917 2916 2914 2913 2912 2911 2910 2908 2907 2906 2905 2904 2903 2901 2899 2898 2896 2895 2894 2893 2892 2891 2890 2888 2886 2885 2884 2882 2880 2878 2877 2876 2875 2875 2875 2875 2874 2874 2873 2871 2870 2870
2955 2954 2954 2953 2953 2952 2952 2951 2950 2950 2949 2949 2948 2947 2946 2945 2945 2944 2943 2942 2941 2940 2940 2939 2938 2937 2937 2935 2935 2933 2932 2931 2930 2930 2928 2927 2926 2925 2923 2922 2920 2919 2917 2916 2915 2913 2912 2911 2910 2909 2908 2907 2905 2904 2902 2901 2900 2899 2897 2895 2894 2892 2891 2890 2889 2888 2886 2885 2883 2882 2880 2879 2877 2875 2874 2872 2872 2871 2871 2872 2871 2871 2870 2869 2868 2867
2953 2953 2952 2952 2951 2951 2950 2950 2949 2948 2948 2947 2946 2945 2945 2944 2943 2942 2941 2940 2939 2938 2938 2937 2936 2935 2935 2934 2932 2931 2930 2929 2928 2927 2926 2925 2923 2922 2920 2919 2918 2916 2915 2913 2912 2911 2910 2908 2908 2907 2906 2905 2903 2901 2900 2898 2897 2896 2895 2893 2891 2890 2888 2886 2885 2885 2883 2882 2880 2879 2878 2876 2875 2874 2872 2870 2869 2868 2868 2869 2869 2869 2868 2867 2866 2865
2952 2951 2951 2950 2950 2949 2948 2948 2947 2947 2946 2945 2945 2944 2943 2942 2941 2940 2939 2938 2937 2936 2935 2935 2934 2933 2932 2931 2930 2929 2928 2927 2926 2925 2924 2922 2921 2919 2918 2916 2915 2913 2912 2910 2909 2908 2906 2905 2905 2905 2905 2904 2901 2899 2897 2895 2894 2893 2892 2890 2889 2887 2885 2884 2883 2881 2880 2879 2878 2876 2875 2874 2873 2871 2870 2868 2867 2865 2865 2865 2865 2866 2865 2865 2864 2862